Location: Street
(51.1247°N, 2.7429°W)
Time: 03:06:50
(UTC+00:00)

deb Explorer IX - Pass Details

Date: 05 December 2020
Orbit: 536 x 1104 km, 38.8° (Epoch: 20 January)

Event Time Altitude Azimuth Distance (km) Brightness Sun altitude
Rises 14:06:38 0° 220° (SW) 3,874 ? 11.5°
Reaches altitude 10° 14:10:13 10° 205° (SSW) 2,867 ? 11.2°
Maximum altitude 14:15:02 20° 162° (SSE) 2,122 ? 10.8°
Drops below altitude 10° 14:19:31 10° 117° (ESE) 2,641 ? 10.4°
Sets 14:22:38 0° 101° (E) 3,480 ? 10.2°
